Date String (YYYY-MM-DD hh:mm:ss) UTC,Instrument flags,Ambient pressure (hPa),Sample flow (lpm),Bypass flow (lpm),Sample temperature (°C),Ambient temperature (°C),ASC tube jacket temperature (°C),LED temperature (°C),Box temperature (°C),Sample RH (%),Span deviation,Mass concentration (μg/m³),Mass concentration (μg/m³),Mass concentration (μg/m³)
DateTimeUTC,F1_M11,P_M11,Q1_M11,Q2_M11,T1_M11,T2_M11,T3_M11,T4_M11,T5_M11,U1_M11,ZSPAN_M11,X0_M11,X2_M11,X1_M11
2022-01-10 07:00:00,,0839.0,5.00,0.00,22.4,22.2,00.0,31.4,24.2,07.2,0000.0,0004.74,0003.42,0003.22
2022-01-10 07:01:00,,0839.0,5.00,0.00,22.4,22.1,00.0,31.4,24.1,07.2,0000.0,0004.80,0003.42,0003.19
2022-01-10 07:02:00,,0839.0,5.00,0.00,22.4,21.9,00.0,31.4,24.1,07.1,0000.0,0005.61,0003.37,0003.14
2022-01-10 07:03:00,,0839.0,4.99,0.00,22.3,21.8,00.0,31.4,24.0,07.1,0000.0,0006.05,0003.30,0003.02
2022-01-10 07:04:00,,0839.0,4.99,0.00,22.3,21.7,00.0,31.4,24.0,07.1,0000.0,0006.34,0003.23,0002.86
2022-01-10 07:05:00,,0839.0,5.01,0.00,22.3,21.6,00.0,31.3,24.0,07.1,0000.0,0006.18,0003.19,0002.80
2022-01-10 07:06:00,,0838.9,5.01,0.00,22.3,21.6,00.0,31.3,23.9,07.1,0000.0,0006.16,0003.19,0002.80
2022-01-10 07:07:00,,0838.8,5.00,0.00,22.2,21.5,00.0,31.3,23.9,07.1,0000.0,0006.15,0003.19,0002.81
2022-01-10 07:08:00,,0838.8,5.00,0.00,22.2,21.5,00.0,31.3,23.8,07.2,0000.0,0006.13,0003.19,0002.79
2022-01-10 07:09:00,,0838.9,4.99,0.00,22.2,21.4,00.0,31.3,23.8,07.1,0000.0,0006.07,0003.15,0002.76
2022-01-10 07:10:00,,0838.8,5.01,0.00,22.2,21.4,00.0,31.3,23.8,07.1,0000.0,0006.02,0003.10,0002.70
2022-01-10 07:11:00,,0838.8,5.00,0.00,22.1,21.3,00.0,31.3,23.7,07.1,0000.0,0005.92,0003.03,0002.64
2022-01-10 07:12:00,,0838.7,5.00,0.00,22.1,21.3,00.0,31.3,23.7,07.1,0000.0,0005.75,0002.94,0002.58
2022-01-10 07:13:00,,0838.8,5.00,0.00,22.1,21.7,00.0,31.3,23.8,07.2,0000.0,0004.95,0002.98,0002.60
2022-01-10 07:14:00,,0838.7,4.99,0.00,22.3,22.5,00.0,31.3,24.1,07.3,0000.0,0005.83,0003.15,0002.76
2022-01-10 07:15:00,,0838.7,4.99,0.00,22.4,23.1,00.0,31.3,24.3,07.2,0000.0,0006.04,0003.23,0002.92
2022-01-10 07:16:00,,0838.7,5.01,0.00,22.5,22.9,00.0,31.4,24.3,06.9,0000.0,0006.19,0003.29,0003.02
2022-01-10 07:17:00,,0838.6,5.00,0.00,22.5,22.6,00.0,31.4,24.3,06.9,0000.0,0006.42,0003.35,0003.08
2022-01-10 07:18:00,,0838.6,5.01,0.00,22.4,22.4,00.0,31.4,24.2,06.7,0000.0,0006.49,0003.35,0003.09
2022-01-10 07:19:00,,0838.5,4.98,0.00,22.4,22.2,00.0,31.4,24.1,06.4,0000.0,0006.42,0003.31,0003.02
2022-01-10 07:20:00,,0838.5,5.01,0.00,22.4,22.1,00.0,31.4,24.1,06.3,0000.0,0006.26,0003.26,0002.94
2022-01-10 07:21:00,,0838.5,4.99,0.00,22.4,22.0,00.0,31.4,24.1,06.5,0000.0,0006.24,0003.26,0002.92
2022-01-10 07:22:00,,0838.5,5.00,0.00,22.3,21.8,00.0,31.4,24.0,06.5,0000.0,0006.64,0003.24,0002.88
2022-01-10 07:23:00,,0838.5,5.00,0.00,22.3,21.8,00.0,31.4,24.0,06.5,0000.0,0006.64,0003.22,0002.85
2022-01-10 07:24:00,,0838.6,4.99,0.00,22.3,21.7,00.0,31.4,24.0,06.4,0000.0,0006.34,0003.15,0002.75
2022-01-10 07:25:00,,0838.5,5.01,0.00,22.3,21.6,00.0,31.3,23.9,06.4,0000.0,0004.75,0002.93,0002.56
2022-01-10 07:26:00,,0838.5,4.98,0.00,22.2,21.5,00.0,31.3,23.9,06.6,0000.0,0004.14,0002.72,0002.37
2022-01-10 07:27:00,,0838.5,5.00,0.00,22.2,21.5,00.0,31.3,23.8,06.8,0000.0,0004.06,0002.60,0002.24
2022-01-10 07:28:00,,0838.6,5.01,0.00,22.2,21.4,00.0,31.3,23.8,06.6,0000.0,0003.78,0002.43,0002.12
2022-01-10 07:29:00,,0838.5,4.99,0.00,22.2,21.4,00.0,31.3,23.8,06.5,0000.0,0003.62,0002.31,0002.01
2022-01-10 07:30:00,,0838.5,5.01,0.00,22.1,21.4,00.0,31.3,23.7,06.5,0000.0,0003.47,0002.23,0001.95
2022-01-10 07:31:00,,0838.5,4.99,0.00,22.1,21.3,00.0,31.3,23.7,06.4,0000.0,0003.40,0002.16,0001.88
2022-01-10 07:32:00,,0838.5,5.01,0.00,22.1,21.6,00.0,31.3,23.8,06.2,0000.0,0003.19,0002.00,0001.74
2022-01-10 07:33:00,,0838.5,4.99,0.00,22.2,22.3,00.0,31.3,24.0,06.1,0000.0,0002.58,0001.82,0001.60
2022-01-10 07:34:00,,0838.5,5.01,0.00,22.4,23.0,00.0,31.3,24.3,05.9,0000.0,0002.20,0001.63,0001.44
2022-01-10 07:35:00,,0838.5,5.00,0.00,22.4,23.0,00.0,31.3,24.3,06.0,0000.0,0002.00,0001.47,0001.28
2022-01-10 07:36:00,,0838.4,5.00,0.00,22.5,22.7,00.0,31.4,24.3,06.0,0000.0,0001.75,0001.29,0001.13
2022-01-10 07:37:00,,0838.4,5.00,0.00,22.4,22.4,00.0,31.4,24.2,06.0,0000.0,0001.54,0001.13,0001.01
2022-01-10 07:38:00,,0838.4,5.00,0.00,22.4,22.2,00.0,31.4,24.1,06.0,0000.0,0001.20,0000.95,0000.86
2022-01-10 07:39:00,,0838.3,4.99,0.00,22.4,22.1,00.0,31.4,24.1,06.1,0000.0,0001.01,0000.79,0000.70
2022-01-10 07:40:00,,0838.4,5.01,0.00,22.4,21.9,00.0,31.4,24.0,06.1,0000.0,0000.81,0000.64,0000.57
2022-01-10 07:41:00,,0838.4,4.99,0.00,22.3,21.8,00.0,31.4,24.0,06.1,0000.0,0000.67,0000.52,0000.47
2022-01-10 07:42:00,,0838.3,5.01,0.00,22.3,21.7,00.0,31.3,23.9,06.1,0000.0,0000.51,0000.41,0000.38
2022-01-10 07:43:00,,0838.3,5.00,0.00,22.3,21.6,00.0,31.3,23.9,06.1,0000.0,0000.43,0000.37,0000.35
2022-01-10 07:44:00,,0838.3,4.99,0.00,22.2,21.6,00.0,31.3,23.9,06.1,0000.0,0000.44,0000.36,0000.34
2022-01-10 07:45:00,,0838.4,4.99,0.00,22.2,21.5,00.0,31.3,23.8,06.1,0000.0,0000.44,0000.35,0000.32
2022-01-10 07:46:00,,0838.3,5.00,0.00,22.2,21.5,00.0,31.3,23.8,06.1,0000.0,0000.45,0000.35,0000.32
2022-01-10 07:47:00,,0838.3,5.01,0.00,22.2,21.4,00.0,31.3,23.7,06.0,0000.0,0000.48,0000.36,0000.32
2022-01-10 07:48:00,,0838.3,4.99,0.00,22.1,21.3,00.0,31.3,23.7,05.9,0000.0,0000.94,0000.37,0000.32
2022-01-10 07:49:00,,0838.3,5.01,0.00,22.1,21.3,00.0,31.3,23.7,05.9,0000.0,0001.38,0000.37,0000.32
2022-01-10 07:50:00,,0838.3,5.00,0.00,22.2,21.9,00.0,31.3,23.9,05.8,0000.0,0001.42,0000.39,0000.33
2022-01-10 07:51:00,,0838.3,4.99,0.00,22.3,22.7,00.0,31.3,24.2,05.8,0000.0,0001.45,0000.40,0000.34
2022-01-10 07:52:00,,0838.3,5.00,0.00,22.5,23.2,00.0,31.4,24.4,05.8,0000.0,0001.55,0000.45,0000.37
2022-01-10 07:53:00,,0838.3,5.00,0.00,22.5,22.9,00.0,31.4,24.4,05.8,0000.0,0001.60,0000.50,0000.42
2022-01-10 07:54:00,,0838.3,5.01,0.00,22.5,22.7,00.0,31.4,24.3,05.8,0000.0,0001.64,0000.53,0000.45
2022-01-10 07:55:00,,0838.3,5.01,0.00,22.5,22.4,00.0,31.4,24.2,05.7,0000.0,0001.73,0000.58,0000.48
2022-01-10 07:56:00,,0838.3,5.01,0.00,22.4,22.2,00.0,31.4,24.2,05.8,0000.0,0001.76,0000.60,0000.49
2022-01-10 07:57:00,,0838.3,5.00,0.00,22.4,22.1,00.0,31.4,24.1,05.8,0000.0,0001.78,0000.62,0000.52
2022-01-10 07:58:00,,0838.3,5.00,0.00,22.4,22.0,00.0,31.4,24.1,05.8,0000.0,0001.79,0000.64,0000.54
2022-01-10 07:59:00,,0838.3,5.00,0.00,22.4,21.9,00.0,31.4,24.0,05.8,0000.0,0001.61,0000.67,0000.58
